[[{"header":{"parameterUnit":"m.s-1","parameterCategory":1,"la1":30.2991,"la2":30.254,"lo1":-89.0895,"lo2":-89.0444,"dy":0.0017,"dx":0.0017,"nx":28,"ny":28,"refTime":"2024-05-25T09:00:00:Z","depth":0,"parameterNumber":2,"parameterNumberName":"U-component_of_WINDS"},"data":[0,0,0,0,0,0,0,0,0,0,0,0,0,0,0,0,0,0,0,0,0,0,0,0,0,0,0,0,0,0,0,0,0,0,0,0,0,0,0,0,0,0,0,0,0,0,0,0,0,0,0,0,0,0,0,0,0,0,1.102,1.102,0,1.1009,1.1008,1.1008,1.097,1.097,1.0969,1.0968,1.0956,1.0957,1.0957,0,0,0,0,0,0,0,0,0,0,0,0,0,1.1007,1.1007,1.102,1.102,1.1019,1.1009,1.1008,1.1008,1.0971,1.0969,1.0968,1.0967,1.0956,1.0957,1.0957,0,0,0,0,0,0,0,0,0,0,0,0,0,1.1006,1.1008,1.102,1.0999,1.0997,1.1009,1.1008,1.1008,1.0971,1.0969,1.0968,1.0967,1.0956,1.0957,1.0957,1.0987,0,0,1.096,1.096,0,0,0,0,0,0,0,0,1.1006,1.1006,1.1002,1.1001,1.0999,1.099,1.1,1.1001,1.0971,1.0981,1.0968,1.0966,1.0968,1.0968,1.0969,1.0987,1.0986,1.096,1.096,1.096,1.0961,0,0,0,0,0,0,0,1.1006,1.1007,1.1015,1.1002,1.1,1.099,1.0989,1.1,1.0982,1.098,1.0977,1.0976,1.0967,1.0968,1.0968,1.0986,1.096,1.096,1.0961,1.0961,1.1026,1.1027,0,0,0,0,0,0,1.1009,1.1007,1.1016,1.1015,1.0999,1.0992,1.099,1.0994,1.0982,1.0979,1.0977,1.0975,1.0967,1.0967,1.0968,1.1,1.096,1.0961,1.0962,1.1025,1.1026,1.1028,0,0,0,0,0,0,1.1009,1.101,1.1016,1.101,1.101,1.0993,1.0998,1.0994,1.0995,1.098,1.0976,1.0982,1.0966,1.0967,1.0982,1.0999,1.0961,1.0962,1.1023,1.1025,1.1027,1.1067,0,0,0,0,0,0,1.1009,1.1011,1.1022,1.1011,1.1011,1.1031,1.0999,1.0995,1.0997,1.0993,1.0983,1.098,1.0965,1.0981,1.0983,1.1,1.0963,1.1022,1.1024,1.1027,1.1064,1.107,1.1075,0,0,0,0,0,1.1009,1.1034,1.1023,1.1024,1.1025,1.1033,1.1032,1.1015,1.0998,1.1009,1.0999,1.098,1.0998,1.0983,1.0985,1.1002,1.1021,1.1024,1.1026,1.1061,1.1068,1.1075,0,0,0,0,0,0,1.1048,1.1032,1.102,1.1043,1.1039,1.1026,1.104,1.1024,1.1025,1.1021,1.1,1.0998,1.1016,1.1011,1.0995,1.1029,1.1006,1.1009,1.1032,1.1039,1.1044,1.1044,1.0963,0,0,0,0,0,1.106,1.1068,1.1053,1.1075,1.1073,1.1057,1.106,1.1047,1.1042,1.104,1.1032,1.1028,1.1032,1.1035,1.1039,1.1063,1.106,1.1076,1.1081,1.1086,1.1088,1.1099,1.1105,1.1037,1.1037,1.1037,0,0,1.1083,1.1076,1.1082,1.1082,1.1078,1.1086,1.1056,1.1066,1.1071,1.1042,1.1055,1.1049,1.1043,1.1063,1.1071,1.1059,1.1106,1.1089,1.1093,1.1093,1.1103,1.1109,1.1115,1.1039,1.1039,1.1039,0,0,1.113,1.1126,1.1142,1.1138,1.1132,1.1121,1.1125,1.1114,1.1108,1.1122,1.1099,1.1105,1.1114,1.111,1.1109,1.1153,1.1135,1.1155,1.1183,1.1193,1.1199,1.1203,1.1217,1.1222,1.1158,1.1158,1.1158,0,1.116,1.1171,1.1152,1.1163,1.1163,1.1137,1.1152,1.115,1.1145,1.1146,1.1132,1.1141,1.1135,1.1153,1.1163,1.1164,1.1167,1.1155,1.12,1.1204,1.1208,1.1221,1.1226,1.116,1.116,1.1159,1.1159,0,1.1207,1.1215,1.1229,1.1224,1.1226,1.1239,1.1222,1.1226,1.1213,1.1203,1.1216,1.1208,1.1208,1.1212,1.12,1.1227,1.122,1.1204,1.1179,1.1217,1.1228,1.1233,1.1163,1.1162,1.1162,1.1161,0,0,1.1278,1.1262,1.1267,1.1264,1.1255,1.126,1.1272,1.1272,1.1275,1.1273,1.1281,1.1288,1.1272,1.1272,1.1258,1.1268,1.1301,1.125,1.125,1.1258,1.1328,1.1339,1.1345,1.1289,1.129,1.1291,1.1328,0,1.132,1.1339,1.1322,1.1343,1.1349,1.1324,1.1334,1.1329,1.132,1.1324,1.1313,1.1318,1.1298,1.1297,1.1306,1.1295,1.1314,1.1292,1.1295,1.1296,1.1296,1.1352,1.1364,1.1399,1.1333,1.1334,1.1334,0,1.1372,1.1371,1.1393,1.1381,1.1383,1.1392,1.1389,1.1394,1.1387,1.138,1.1378,1.1362,1.1372,1.1349,1.1361,1.1347,1.1347,1.1342,1.1343,1.1341,1.1316,1.135,1.141,1.1415,1.1342,1.1341,1.134,0,1.1418,1.1423,1.1436,1.1434,1.1421,1.1428,1.1423,1.1415,1.1415,1.1414,1.1414,1.1413,1.1413,1.1413,1.1396,1.1382,1.141,1.1386,1.1403,1.1403,1.1408,1.1408,1.1468,1.1412,1.1412,1.1412,1.1412,0,1.1466,1.148,1.1456,1.1464,1.1479,1.1459,1.1474,1.1466,1.146,1.1465,1.1444,1.1449,1.1428,1.1431,1.1419,1.143,1.143,1.1424,1.142,1.1424,1.1425,1.1423,1.1419,1.1413,1.1413,1.1413,1.1413,0,1.152,1.1505,1.1517,1.1503,1.15,1.1511,1.1499,1.1506,1.1495,1.1502,1.1502,1.1486,1.1488,1.1472,1.1472,1.1463,1.148,1.1473,1.1481,1.1478,1.1495,1.1493,1.1554,1.156,1.1503,1.1503,1.1504,0,1.155,1.156,1.1547,1.1549,1.1545,1.1549,1.1549,1.153,1.1531,1.1524,1.1531,1.1531,1.153,1.1535,1.1523,1.1522,1.1514,1.1535,1.1513,1.1517,1.1512,1.151,1.151,1.1539,1.154,1.1541,1.1541,0,1.1605,1.1597,1.1598,1.1596,1.1597,1.1595,1.1591,1.1594,1.1573,1.1575,1.1577,1.1577,1.1576,1.1576,1.1573,1.1567,1.155,1.1548,1.1552,1.1556,1.1559,1.1555,1.1492,1.1547,1.1546,1.1546,1.1545,1.1545,1.1647,1.1654,1.1645,1.1647,1.1642,1.1639,1.1643,1.1633,1.1634,1.1631,1.1621,1.1624,1.1616,1.161,1.1606,1.1608,1.1597,1.1603,1.1604,1.1605,1.1607,1.1561,1.1607,1.1607,1.1607,1.1607,1.1607,0,1.1699,1.1692,1.1694,1.1688,1.1689,1.1674,1.1669,1.167,1.1674,1.1668,1.1667,1.1669,1.1669,1.1656,1.1654,1.1658,1.1651,1.1658,1.1657,1.1655,1.1617,1.1614,1.1665,1.1665,1.1665,1.1665,1.1665,1.1665,1.1726,1.1736,1.1727,1.1734,1.1727,1.173,1.1728,1.1724,1.1719,1.1722,1.1721,1.1713,1.1704,1.1702,1.1701,1.1697,1.1696,1.1706,1.17,1.1664,1.1658,1.1653,1.1649,1.1707,1.1707,1.1738,1.1738,1.1738]},{"header":{"parameterUnit":"m.s-1","parameterCategory":1,"la1":30.2991,"la2":30.254,"lo1":-89.0895,"lo2":-89.0444,"dy":0.0017,"dx":0.0017,"nx":28,"ny":28,"refTime":"2024-05-25T09:00:00:Z","depth":0,"parameterNumber":3,"parameterNumberName":"V-component_of_WINDS"},"data":[0,0,0,0,0,0,0,0,0,0,0,0,0,0,0,0,0,0,0,0,0,0,0,0,0,0,0,0,0,0,0,0,0,0,0,0,0,0,0,0,0,0,0,0,0,0,0,0,0,0,0,0,0,0,0,0,0,0,5.1219,5.1219,0,5.1289,5.1289,5.129,5.1218,5.1215,5.1213,5.121,5.1277,5.1281,5.1286,0,0,0,0,0,0,0,0,0,0,0,0,0,5.1017,5.1021,5.1218,5.1219,5.122,5.1288,5.1289,5.129,5.1219,5.1215,5.1212,5.1209,5.1276,5.1281,5.1286,0,0,0,0,0,0,0,0,0,0,0,0,0,5.1098,5.1023,5.1218,5.1193,5.1191,5.1288,5.1289,5.1291,5.1219,5.1215,5.1211,5.1207,5.1274,5.128,5.1287,5.1411,0,0,5.1307,5.131,0,0,0,0,0,0,0,0,5.1093,5.1105,5.1196,5.1195,5.1193,5.1241,5.1243,5.1331,5.1221,5.1209,5.121,5.1205,5.1268,5.1275,5.1297,5.1414,5.1417,5.1308,5.1312,5.1314,5.1316,0,0,0,0,0,0,0,5.1088,5.1102,5.1246,5.1197,5.1196,5.1176,5.1183,5.1259,5.1261,5.1209,5.1204,5.1214,5.1266,5.1291,5.1298,5.1418,5.1307,5.1313,5.1317,5.132,5.1638,5.1642,0,0,0,0,0,0,5.1086,5.1098,5.1244,5.1248,5.1132,5.1183,5.1191,5.1229,5.126,5.126,5.1217,5.121,5.1282,5.129,5.13,5.1446,5.1314,5.132,5.1324,5.1633,5.1639,5.1644,0,0,0,0,0,0,5.1082,5.1099,5.1241,5.1172,5.1188,5.1191,5.1235,5.1233,5.1257,5.1266,5.1265,5.1242,5.1279,5.1291,5.1384,5.1447,5.1323,5.1329,5.1628,5.1635,5.1641,5.1739,0,0,0,0,0,0,5.1076,5.1098,5.1147,5.1173,5.1192,5.1325,5.1239,5.1237,5.1269,5.1261,5.1289,5.129,5.1276,5.1374,5.139,5.1454,5.1335,5.1622,5.1631,5.1639,5.173,5.1748,5.1764,0,0,0,0,0,5.1069,5.1171,5.115,5.1168,5.1253,5.1329,5.134,5.1324,5.1275,5.1322,5.1328,5.1289,5.1438,5.1384,5.1402,5.1468,5.1618,5.1629,5.1638,5.1722,5.1745,5.1763,0,0,0,0,0,0,5.1151,5.1174,5.1151,5.1265,5.1296,5.1317,5.1377,5.1348,5.1392,5.1382,5.1359,5.1366,5.1464,5.1475,5.1416,5.1589,5.152,5.1534,5.1578,5.1599,5.1615,5.161,5.134,0,0,0,0,0,5.1182,5.1244,5.126,5.1359,5.1376,5.1374,5.1407,5.1392,5.1422,5.1434,5.1446,5.1476,5.1529,5.1565,5.1614,5.1732,5.1735,5.1786,5.1803,5.1816,5.1828,5.1889,5.1911,5.1677,5.1677,5.1677,0,0,5.1247,5.1268,5.1308,5.1376,5.1398,5.146,5.1385,5.1455,5.15,5.1444,5.1533,5.1543,5.1574,5.1679,5.1726,5.1692,5.1894,5.1829,5.184,5.1845,5.1902,5.1924,5.1944,5.1684,5.1683,5.1681,0,0,5.1398,5.142,5.1504,5.1528,5.1563,5.1561,5.1582,5.1608,5.1612,5.1701,5.166,5.1712,5.1805,5.1829,5.1853,5.2012,5.1977,5.2028,5.2116,5.2175,5.2194,5.221,5.2265,5.2285,5.2041,5.2041,5.2041,0,5.1474,5.1568,5.1551,5.1623,5.1653,5.1607,5.169,5.1714,5.1763,5.1784,5.1745,5.186,5.1878,5.1987,5.2026,5.2047,5.2068,5.2025,5.2193,5.2209,5.2224,5.2275,5.2296,5.2047,5.2046,5.2046,5.2045,0,5.1658,5.1724,5.1787,5.1837,5.1874,5.1952,5.1945,5.1984,5.1966,5.1967,5.2057,5.2077,5.2129,5.2154,5.2137,5.226,5.2238,5.2197,5.2126,5.2252,5.23,5.232,5.2055,5.2053,5.2051,5.205,0,0,5.1862,5.1901,5.1924,5.1945,5.1981,5.203,5.2105,5.2157,5.219,5.2226,5.2286,5.2365,5.2327,5.2355,5.2339,5.2392,5.2513,5.2343,5.2344,5.2373,5.2649,5.2678,5.2702,5.2491,5.2495,5.2498,5.2645,0,5.2011,5.2143,5.2129,5.2253,5.2312,5.2269,5.2333,5.2361,5.2364,5.2413,5.2415,5.2472,5.2418,5.2434,5.2484,5.2488,5.2568,5.2477,5.2545,5.2547,5.2537,5.2727,5.2759,5.2898,5.2664,5.2668,5.267,0,5.2204,5.2247,5.2377,5.2402,5.2426,5.2485,5.2531,5.2579,5.2608,5.2607,5.2638,5.2613,5.2685,5.2615,5.2713,5.2652,5.2679,5.2685,5.269,5.2694,5.2615,5.2735,5.2942,5.2962,5.27,5.2697,5.2695,0,5.2336,5.2427,5.2516,5.2536,5.2568,5.261,5.2625,5.265,5.2682,5.2722,5.2741,5.2789,5.2814,5.2851,5.2838,5.2789,5.2939,5.2868,5.2937,5.2938,5.297,5.2968,5.3182,5.299,5.299,5.2989,5.2989,0,5.2504,5.2585,5.2576,5.2631,5.272,5.2702,5.279,5.2799,5.2822,5.2876,5.2841,5.2892,5.2874,5.2923,5.2914,5.2996,5.3008,5.3007,5.3003,5.301,5.301,5.3026,5.3015,5.2995,5.2994,5.2993,5.2992,0,5.2667,5.2665,5.2759,5.2782,5.2789,5.2853,5.2871,5.2922,5.2922,5.2991,5.3006,5.3006,5.3062,5.3054,5.3117,5.311,5.3212,5.3197,5.3202,5.3198,5.3268,5.3261,5.3499,5.3528,5.3319,5.3321,5.3323,0,5.2774,5.2835,5.2864,5.2899,5.2917,5.2973,5.3006,5.2991,5.3025,5.3063,5.3108,5.3162,5.3204,5.3296,5.33,5.3347,5.3332,5.3412,5.3339,5.3343,5.3331,5.3327,5.3332,5.3426,5.3429,5.3431,5.3432,0,5.2962,5.2958,5.3007,5.3056,5.3096,5.3133,5.3167,5.3197,5.3184,5.3225,5.3283,5.3316,5.3379,5.3432,5.3476,5.3489,5.3458,5.3455,5.3474,5.348,5.348,5.3479,5.324,5.345,5.3448,5.3447,5.3446,5.3445,5.3099,5.3151,5.318,5.3235,5.3259,5.3291,5.3339,5.3346,5.3394,5.3446,5.3434,5.3499,5.3525,5.3581,5.3599,5.3648,5.3618,5.3645,5.3652,5.3658,5.3666,5.3473,5.3656,5.3655,5.3655,5.3655,5.3654,0,5.3284,5.3301,5.3352,5.34,5.3444,5.3413,5.3448,5.3485,5.3543,5.3571,5.3613,5.3679,5.373,5.3738,5.3786,5.3824,5.381,5.3836,5.3833,5.3836,5.369,5.3669,5.3846,5.3846,5.3846,5.3846,5.3846,5.3846,5.3386,5.3471,5.347,5.3567,5.3582,5.3646,5.3669,5.3697,5.3719,5.3795,5.3837,5.3843,5.3862,5.3911,5.3956,5.3957,5.3975,5.4006,5.4002,5.3865,5.3846,5.3828,5.3807,5.4011,5.4011,5.4143,5.4144,5.4145]}]]